Regional Weather Roundup
Issued by NWS

Home | Current Version | Previous Version | Text Only | Print | Product List | Glossary On
Versions: 1 2 3 4 5 6 7 8 9 10 11 12 13 14 15 16 17 18 19 20 21 22 23 24 25 26 27
000
ASUS46 KPQR 301710
RWROR

OREGON REGIONAL WEATHER ROUNDUP
NATIONAL WEATHER SERVICE PORTLAND OR
1000 AM PDT SAT APR 30 2016

NOTE: "FAIR" INDICATES FEW OR NO CLOUDS BELOW 12,000 FEET WITH
NO SIGNIFICANT WEATHER AND/OR OBSTRUCTIONS TO VISIBILITY.

ORZ001>013-301800-
NORTHWEST OREGON


CITY           SKY/WX    TMP DP  RH WIND       PRES   REMARKS
ASTORIA        CLOUDY    55  44  66 NW3       30.37S HAZE
NEWPORT        MOSUNNY   55  43  62 N6        30.39S
PORTLAND       CLOUDY    52  42  69 CALM      30.37S
VANCOUVER WA   CLOUDY    52  43  71 NE6       30.36F
SCAPPOOSE      SUNNY     54  42  64 N10       30.35F
HILLSBORO      PTSUNNY   53  42  66 E3        30.35F
AURORA         CLOUDY    51  41  68 NE7       30.37S
MCMINNVILLE    SUNNY     54  40  59 VRB3      30.37F
SALEM          CLOUDY    54  41  61 N9        30.35F
CORVALLIS        N/A     54  39  58 NE13      30.37S
EUGENE         PTSUNNY   52  43  71 N10       30.35S
$$

ORZ021-028-301800-
SOUTHWEST OREGON


CITY           SKY/WX    TMP DP  RH WIND       PRES   REMARKS
NORTH BEND     SUNNY     55  45  67 NE8       30.35F
BROOKINGS      SUNNY     59  41  51 NW12G18   30.21F
ROSEBURG       MOSUNNY   54  42  64 N7        30.31S
SEXTON SUMMIT  CLOUDY    41  39  93 N8        30.22S
MEDFORD        MOSUNNY   53  41  63 W3        30.25F
$$

ORZ014>016-041-301800-
COLUMBIA GORGE


CITY           SKY/WX    TMP DP  RH WIND       PRES   REMARKS
TROUTDALE      CLOUDY    52  42  69 CALM      30.36F
HOOD RIVER     SUNNY     55  41  58 W9G16     30.30S
THE DALLES     SUNNY     59  40  49 NW17      30.28S
$$

ORZ029>031-041-044-049-050-061>064-502-503-505>511-301800-
EASTERN OREGON


CITY           SKY/WX    TMP DP  RH WIND       PRES   REMARKS
REDMOND        SUNNY     49  33  54 NW8       30.26S
BEND           SUNNY     46  32  57 VRB6      30.25S
PRINEVILLE     SUNNY     48  34  57 VRB3      30.25F
KLAMATH FALLS  SUNNY     48  30  49 N10       30.19F
LAKEVIEW       SUNNY     43  34  70 N20G29    30.20S
HERMISTON      CLOUDY    60  40  47 W9        30.24S
PENDLETON      PTSUNNY   54  36  50 W8        30.24S
JOHN DAY       CLOUDY    46  37  68 W6        30.23S
MEACHAM        CLOUDY    43  36  76 VRB3      30.23S
LA GRANDE      CLOUDY    52  34  50 NW16      30.21S
BAKER CITY     MOSUNNY   51  35  54 NW21G30   30.19R
BURNS          SUNNY     52  31  44 N8G17     30.17F
ROME             N/A     52  34  50 N15G22    30.12S
ONTARIO        SUNNY     61  39  44 NW21      30.12F
$$




USA.gov is the U.S. government's official web portal to all federal, state and local government web resources and services.